Time,TemperatureF,DewpointF,PressureIn,WindDirection,WindDirectionDegrees,WindSpeedMPH,WindSpeedGustMPH,Humidity,HourlyPrecipIn,Conditions,Clouds,dailyrainin,SoftwareType,DateUTC
2013-08-27 00:00:00,76.4,69.0,30.06,ENE,74,5.0,5.0,78,0.00,,,0.00,Wunderground v.1.15,2013-08-27 10:00:00,
2013-08-27 00:05:00,76.2,68.5,30.06,East,82,5.0,5.0,77,0.00,,,0.00,Wunderground v.1.15,2013-08-27 10:05:00,
2013-08-27 00:15:00,76.2,68.5,30.06,East,90,6.0,6.0,77,0.00,,,0.00,Wunderground v.1.15,2013-08-27 10:15:00,
2013-08-27 00:25:00,76.1,68.4,30.06,East,88,5.0,5.0,77,0.00,,,0.00,Wunderground v.1.15,2013-08-27 10:25:00,
2013-08-27 00:35:00,76.0,67.9,30.06,ENE,78,5.0,5.0,76,0.00,,,0.00,Wunderground v.1.15,2013-08-27 10:35:00,
2013-08-27 00:45:00,75.9,68.2,30.05,ENE,74,5.0,10.0,77,0.00,,,0.00,Wunderground v.1.15,2013-08-27 10:45:00,
2013-08-27 00:55:00,75.8,68.1,30.05,ENE,77,5.0,7.0,77,0.00,,,0.00,Wunderground v.1.15,2013-08-27 10:55:00,
2013-08-27 01:05:00,75.8,68.1,30.05,ESE,105,4.0,4.0,77,0.00,,,0.00,Wunderground v.1.15,2013-08-27 11:05:00,
2013-08-27 01:15:00,75.9,68.2,30.05,ENE,61,4.0,6.0,77,0.00,,,0.00,Wunderground v.1.15,2013-08-27 11:15:00,
2013-08-27 01:25:00,75.8,68.1,30.05,East,81,4.0,9.0,77,0.00,,,0.00,Wunderground v.1.15,2013-08-27 11:25:00,
2013-08-27 01:30:00,75.7,68.0,30.05,East,79,3.0,3.0,77,0.00,,,0.00,Wunderground v.1.15,2013-08-27 11:30:00,
2013-08-27 01:40:00,75.7,67.6,30.05,ESE,103,4.0,5.0,76,0.00,,,0.00,Wunderground v.1.15,2013-08-27 11:40:00,
2013-08-27 01:45:00,75.8,67.7,30.04,East,88,4.0,5.0,76,0.00,,,0.00,Wunderground v.1.15,2013-08-27 11:45:00,
2013-08-27 01:55:00,75.8,68.1,30.04,NE,56,4.0,9.0,77,0.00,,,0.00,Wunderground v.1.15,2013-08-27 11:55:00,
2013-08-27 02:05:00,76.0,67.9,30.04,NE,42,5.0,7.0,76,0.00,,,0.00,Wunderground v.1.15,2013-08-27 12:05:00,
2013-08-27 02:15:00,75.9,67.8,30.04,ENE,66,5.0,9.0,76,0.00,,,0.00,Wunderground v.1.15,2013-08-27 12:15:00,
2013-08-27 02:25:00,76.0,67.5,30.03,ENE,68,5.0,5.0,75,0.00,,,0.00,Wunderground v.1.15,2013-08-27 12:25:00,
2013-08-27 02:35:00,76.0,67.9,30.04,SE,129,4.0,7.0,76,0.00,,,0.00,Wunderground v.1.15,2013-08-27 12:35:00,
2013-08-27 02:45:00,76.1,68.0,30.04,East,92,5.0,7.0,76,0.00,,,0.00,Wunderground v.1.15,2013-08-27 12:45:00,
2013-08-27 02:55:00,76.1,68.0,30.03,NE,48,5.0,8.0,76,0.00,,,0.00,Wunderground v.1.15,2013-08-27 12:55:00,
2013-08-27 03:05:00,76.1,67.6,30.03,NE,46,6.0,11.0,75,0.00,,,0.00,Wunderground v.1.15,2013-08-27 13:05:00,
2013-08-27 03:15:00,75.8,66.9,30.04,NE,46,4.0,5.0,74,0.00,,,0.00,Wunderground v.1.15,2013-08-27 13:15:00,
2013-08-27 03:25:00,75.7,67.2,30.04,NE,56,4.0,5.0,75,0.00,,,0.00,Wunderground v.1.15,2013-08-27 13:25:00,
2013-08-27 03:30:00,75.7,67.2,30.03,NE,45,4.0,5.0,75,0.00,,,0.00,Wunderground v.1.15,2013-08-27 13:30:00,
2013-08-27 03:40:00,75.7,66.8,30.04,ENE,65,6.0,9.0,74,0.00,,,0.00,Wunderground v.1.15,2013-08-27 13:40:00,
2013-08-27 03:50:00,75.6,66.7,30.04,East,79,5.0,5.0,74,0.00,,,0.00,Wunderground v.1.15,2013-08-27 13:50:00,
2013-08-27 04:00:00,75.5,67.0,30.04,ESE,105,5.0,6.0,75,0.00,,,0.00,Wunderground v.1.15,2013-08-27 14:00:00,
2013-08-27 04:05:00,75.5,67.0,30.04,NE,51,5.0,6.0,75,0.00,,,0.00,Wunderground v.1.15,2013-08-27 14:05:00,
2013-08-27 04:15:00,75.2,66.7,30.04,ENE,78,4.0,6.0,75,0.00,,,0.00,Wunderground v.1.15,2013-08-27 14:15:00,
2013-08-27 04:20:00,75.4,66.9,30.04,SE,134,4.0,10.0,75,0.00,,,0.00,Wunderground v.1.15,2013-08-27 14:20:00,
2013-08-27 04:30:00,75.3,66.8,30.05,ESE,106,4.0,4.0,75,0.00,,,0.00,Wunderground v.1.15,2013-08-27 14:30:00,
2013-08-27 04:40:00,75.2,66.7,30.05,ESE,105,3.0,3.0,75,0.00,,,0.00,Wunderground v.1.15,2013-08-27 14:40:00,
2013-08-27 04:50:00,75.1,67.0,30.05,ENE,66,3.0,6.0,76,0.00,,,0.00,Wunderground v.1.15,2013-08-27 14:50:00,
2013-08-27 05:00:00,74.9,66.4,30.05,East,98,4.0,5.0,75,0.00,,,0.00,Wunderground v.1.15,2013-08-27 15:00:00,
2013-08-27 05:05:00,74.9,66.4,30.05,ESE,106,4.0,5.0,75,0.00,,,0.00,Wunderground v.1.15,2013-08-27 15:05:00,
2013-08-27 05:15:00,74.9,66.4,30.05,East,98,3.0,4.0,75,0.00,,,0.00,Wunderground v.1.15,2013-08-27 15:15:00,
2013-08-27 05:25:00,74.8,66.3,30.05,East,96,3.0,4.0,75,0.00,,,0.00,Wunderground v.1.15,2013-08-27 15:25:00,
2013-08-27 05:35:00,74.9,66.4,30.05,East,82,3.0,3.0,75,0.00,,,0.00,Wunderground v.1.15,2013-08-27 15:35:00,
2013-08-27 05:40:00,74.8,66.7,30.05,ESE,110,3.0,5.0,76,0.00,,,0.00,Wunderground v.1.15,2013-08-27 15:40:00,
2013-08-27 05:50:00,74.6,66.5,30.05,East,95,2.0,2.0,76,0.00,,,0.00,Wunderground v.1.15,2013-08-27 15:50:00,
2013-08-27 06:00:00,74.7,67.0,30.05,East,92,3.0,3.0,77,0.00,,,0.00,Wunderground v.1.15,2013-08-27 16:00:00,
2013-08-27 06:05:00,74.7,67.0,30.05,ENE,68,3.0,3.0,77,0.00,,,0.00,Wunderground v.1.15,2013-08-27 16:05:00,
2013-08-27 06:15:00,74.5,67.2,30.05,East,101,2.0,2.0,78,0.00,,,0.00,Wunderground v.1.15,2013-08-27 16:15:00,
2013-08-27 06:25:00,74.6,67.7,30.05,East,91,3.0,4.0,79,0.00,,,0.00,Wunderground v.1.15,2013-08-27 16:25:00,
2013-08-27 06:35:00,74.5,67.6,30.06,East,91,2.0,4.0,79,0.00,,,0.00,Wunderground v.1.15,2013-08-27 16:35:00,
2013-08-27 06:40:00,74.4,67.5,30.06,East,90,1.0,2.0,79,0.00,,,0.00,Wunderground v.1.15,2013-08-27 16:40:00,
2013-08-27 06:50:00,74.3,67.4,30.06,East,94,2.0,2.0,79,0.00,,,0.00,Wunderground v.1.15,2013-08-27 16:50:00,
2013-08-27 07:00:00,74.5,67.6,30.06,ESE,103,2.0,5.0,79,0.00,,,0.00,Wunderground v.1.15,2013-08-27 17:00:00,
2013-08-27 07:05:00,74.6,67.3,30.06,East,101,2.0,5.0,78,0.00,,,0.00,Wunderground v.1.15,2013-08-27 17:05:00,
2013-08-27 07:15:00,75.0,67.7,30.06,ESE,104,3.0,3.0,78,0.00,,,0.00,Wunderground v.1.15,2013-08-27 17:15:00,
2013-08-27 07:20:00,75.2,67.9,30.06,ESE,106,3.0,3.0,78,0.00,,,0.00,Wunderground v.1.15,2013-08-27 17:20:00,
2013-08-27 07:30:00,76.6,68.5,30.06,ESE,110,3.0,3.0,76,0.00,,,0.00,Wunderground v.1.15,2013-08-27 17:30:00,
2013-08-27 07:40:00,78.1,69.1,30.06,ESE,106,3.0,3.0,74,0.00,,,0.00,Wunderground v.1.15,2013-08-27 17:40:00,
2013-08-27 07:50:00,77.9,68.5,30.06,ESE,110,3.0,3.0,73,0.00,,,0.00,Wunderground v.1.15,2013-08-27 17:50:00,
2013-08-27 07:55:00,78.1,68.7,30.07,NE,55,3.0,3.0,73,0.00,,,0.00,Wunderground v.1.15,2013-08-27 17:55:00,
2013-08-27 08:05:00,78.1,68.3,30.06,ESE,107,3.0,5.0,72,0.00,,,0.00,Wunderground v.1.15,2013-08-27 18:05:00,
2013-08-27 08:15:00,78.5,67.9,30.07,ENE,61,5.0,5.0,70,0.00,,,0.00,Wunderground v.1.15,2013-08-27 18:15:00,
2013-08-27 08:25:00,79.0,68.4,30.06,ENE,71,5.0,5.0,70,0.00,,,0.00,Wunderground v.1.15,2013-08-27 18:25:00,
2013-08-27 08:35:00,79.0,68.4,30.06,East,79,5.0,6.0,70,0.00,,,0.00,Wunderground v.1.15,2013-08-27 18:35:00,
2013-08-27 08:40:00,79.1,68.5,30.06,East,88,6.0,6.0,70,0.00,,,0.00,Wunderground v.1.15,2013-08-27 18:40:00,
2013-08-27 08:50:00,78.9,67.9,30.07,NE,53,6.0,6.0,69,0.00,,,0.00,Wunderground v.1.15,2013-08-27 18:50:00,
2013-08-27 09:00:00,78.4,67.8,30.07,East,100,6.0,6.0,70,0.00,,,0.00,Wunderground v.1.15,2013-08-27 19:00:00,
2013-08-27 09:05:00,79.0,68.4,30.07,ENE,69,6.0,10.0,70,0.00,,,0.00,Wunderground v.1.15,2013-08-27 19:05:00,
2013-08-27 09:15:00,78.9,68.3,30.07,East,98,6.0,6.0,70,0.00,,,0.00,Wunderground v.1.15,2013-08-27 19:15:00,
2013-08-27 09:25:00,79.7,68.2,30.07,ENE,69,6.0,6.0,68,0.00,,,0.00,Wunderground v.1.15,2013-08-27 19:25:00,
2013-08-27 09:35:00,80.5,67.6,30.07,ESE,117,5.0,13.0,65,0.00,,,0.00,Wunderground v.1.15,2013-08-27 19:35:00,
2013-08-27 09:45:00,81.1,68.2,30.07,ENE,78,6.0,6.0,65,0.00,,,0.00,Wunderground v.1.15,2013-08-27 19:45:00,
2013-08-27 09:55:00,81.3,68.4,30.07,ENE,78,6.0,7.0,65,0.00,,,0.00,Wunderground v.1.15,2013-08-27 19:55:00,
2013-08-27 10:05:00,82.0,68.6,30.07,East,91,5.0,14.0,64,0.00,,,0.00,Wunderground v.1.15,2013-08-27 20:05:00,
2013-08-27 10:15:00,82.1,68.7,30.07,ENE,60,5.0,6.0,64,0.00,,,0.00,Wunderground v.1.15,2013-08-27 20:15:00,
2013-08-27 10:25:00,82.1,68.7,30.07,East,90,6.0,8.0,64,0.00,,,0.00,Wunderground v.1.15,2013-08-27 20:25:00,
2013-08-27 10:35:00,82.3,68.9,30.07,East,80,6.0,6.0,64,0.00,,,0.00,Wunderground v.1.15,2013-08-27 20:35:00,
2013-08-27 10:45:00,82.4,69.4,30.06,NE,51,5.0,6.0,65,0.00,,,0.00,Wunderground v.1.15,2013-08-27 20:45:00,
2013-08-27 10:55:00,82.1,68.7,30.06,ENE,77,6.0,6.0,64,0.00,,,0.00,Wunderground v.1.15,2013-08-27 20:55:00,
2013-08-27 11:05:00,81.5,68.6,30.06,ENE,60,6.0,6.0,65,0.00,,,0.00,Wunderground v.1.15,2013-08-27 21:05:00,
2013-08-27 11:15:00,82.3,68.9,30.05,ENE,73,6.0,12.0,64,0.00,,,0.00,Wunderground v.1.15,2013-08-27 21:15:00,
2013-08-27 11:25:00,82.8,69.4,30.05,ENE,63,5.0,6.0,64,0.00,,,0.00,Wunderground v.1.15,2013-08-27 21:25:00,
2013-08-27 11:35:00,82.5,67.2,30.05,East,88,6.0,9.0,60,0.00,,,0.00,Wunderground v.1.15,2013-08-27 21:35:00,
2013-08-27 11:40:00,82.3,67.5,30.04,NE,37,6.0,7.0,61,0.00,,,0.00,Wunderground v.1.15,2013-08-27 21:40:00,
2013-08-27 11:50:00,82.9,67.1,30.04,ESE,114,6.0,6.0,59,0.00,,,0.00,Wunderground v.1.15,2013-08-27 21:50:00,
2013-08-27 12:00:00,83.0,67.2,30.04,ESE,102,6.0,9.0,59,0.00,,,0.00,Wunderground v.1.15,2013-08-27 22:00:00,
2013-08-27 12:05:00,83.2,67.9,30.03,ENE,60,6.0,9.0,60,0.00,,,0.00,Wunderground v.1.15,2013-08-27 22:05:00,
2013-08-27 12:15:00,83.3,68.4,30.03,ESE,105,6.0,9.0,61,0.00,,,0.00,Wunderground v.1.15,2013-08-27 22:15:00,
2013-08-27 12:25:00,82.8,68.0,30.02,NE,51,6.0,9.0,61,0.00,,,0.00,Wunderground v.1.15,2013-08-27 22:25:00,
2013-08-27 12:35:00,82.5,67.7,30.02,ENE,76,7.0,11.0,61,0.00,,,0.00,Wunderground v.1.15,2013-08-27 22:35:00,
2013-08-27 12:45:00,82.7,67.4,30.02,ENE,59,7.0,13.0,60,0.00,,,0.00,Wunderground v.1.15,2013-08-27 22:45:00,
2013-08-27 12:55:00,83.5,68.2,30.02,NE,39,5.0,8.0,60,0.00,,,0.00,Wunderground v.1.15,2013-08-27 22:55:00,
2013-08-27 13:05:00,83.5,69.1,30.01,East,101,6.0,6.0,62,0.00,,,0.00,Wunderground v.1.15,2013-08-27 23:05:00,
2013-08-27 13:15:00,83.4,68.5,30.01,ESE,111,6.0,13.0,61,0.00,,,0.00,Wunderground v.1.15,2013-08-27 23:15:00,
2013-08-27 13:20:00,83.0,69.1,30.01,East,96,6.0,9.0,63,0.00,,,0.00,Wunderground v.1.15,2013-08-27 23:20:00,
2013-08-27 13:30:00,82.4,68.5,30.01,NE,43,7.0,7.0,63,0.00,,,0.00,Wunderground v.1.15,2013-08-27 23:30:00,
2013-08-27 13:40:00,82.4,68.1,30.01,NE,42,6.0,6.0,62,0.00,,,0.00,Wunderground v.1.15,2013-08-27 23:40:00,
2013-08-27 13:50:00,83.2,68.8,30.01,NE,38,6.0,6.0,62,0.00,,,0.00,Wunderground v.1.15,2013-08-27 23:50:00,
2013-08-27 14:00:00,82.3,69.4,30.00,NE,40,7.0,7.0,65,0.00,,,0.00,Wunderground v.1.15,2013-08-28 00:00:00,
2013-08-27 14:05:00,82.1,68.7,30.00,ENE,64,6.0,10.0,64,0.00,,,0.00,Wunderground v.1.15,2013-08-28 00:05:00,
2013-08-27 14:15:00,81.8,68.9,30.00,ENE,68,6.0,8.0,65,0.00,,,0.00,Wunderground v.1.15,2013-08-28 00:15:00,
2013-08-27 14:25:00,81.2,69.6,29.99,NNE,30,6.0,6.0,68,0.00,,,0.00,Wunderground v.1.15,2013-08-28 00:25:00,
2013-08-27 14:35:00,81.2,69.2,29.99,NE,46,6.0,6.0,67,0.00,,,0.00,Wunderground v.1.15,2013-08-28 00:35:00,
2013-08-27 14:40:00,81.2,69.6,29.99,ENE,59,7.0,7.0,68,0.00,,,0.00,Wunderground v.1.15,2013-08-28 00:40:00,
2013-08-27 14:50:00,81.2,69.6,29.99,NE,48,6.0,6.0,68,0.00,,,0.00,Wunderground v.1.15,2013-08-28 00:50:00,
2013-08-27 14:55:00,81.3,69.7,29.99,NNE,32,6.0,6.0,68,0.00,,,0.00,Wunderground v.1.15,2013-08-28 00:55:00,
2013-08-27 15:05:00,81.1,69.5,29.99,NE,38,6.0,13.0,68,0.00,,,0.00,Wunderground v.1.15,2013-08-28 01:05:00,
2013-08-27 15:15:00,80.4,69.3,29.99,ENE,71,7.0,7.0,69,0.00,,,0.00,Wunderground v.1.15,2013-08-28 01:15:00,
2013-08-27 15:25:00,80.7,69.2,29.99,NE,41,6.0,6.0,68,0.00,,,0.00,Wunderground v.1.15,2013-08-28 01:25:00,
2013-08-27 15:35:00,80.7,69.2,29.99,NE,45,6.0,6.0,68,0.00,,,0.00,Wunderground v.1.15,2013-08-28 01:35:00,
2013-08-27 15:45:00,80.8,70.1,29.98,NNE,30,6.0,8.0,70,0.00,,,0.00,Wunderground v.1.15,2013-08-28 01:45:00,
2013-08-27 15:55:00,79.8,69.1,29.98,NE,55,7.0,7.0,70,0.00,,,0.00,Wunderground v.1.15,2013-08-28 01:55:00,
2013-08-27 16:05:00,80.1,69.0,29.98,ENE,71,7.0,10.0,69,0.00,,,0.00,Wunderground v.1.15,2013-08-28 02:05:00,
2013-08-27 16:15:00,80.2,69.9,29.98,NE,34,7.0,13.0,71,0.00,,,0.00,Wunderground v.1.15,2013-08-28 02:15:00,
2013-08-27 16:20:00,80.0,70.2,29.98,ENE,60,7.0,7.0,72,0.00,,,0.00,Wunderground v.1.15,2013-08-28 02:20:00,
2013-08-27 16:30:00,79.7,69.9,29.98,NE,41,6.0,6.0,72,0.00,,,0.00,Wunderground v.1.15,2013-08-28 02:30:00,
2013-08-27 16:40:00,79.7,70.3,29.98,NNE,28,6.0,13.0,73,0.00,,,0.00,Wunderground v.1.15,2013-08-28 02:40:00,
2013-08-27 16:50:00,79.9,69.7,29.98,East,98,6.0,6.0,71,0.00,,,0.00,Wunderground v.1.15,2013-08-28 02:50:00,
2013-08-27 16:55:00,80.0,70.6,29.98,NE,40,6.0,7.0,73,0.00,,,0.00,Wunderground v.1.15,2013-08-28 02:55:00,
2013-08-27 17:00:00,80.0,70.2,29.98,NE,52,6.0,6.0,72,0.00,,,0.00,Wunderground v.1.15,2013-08-28 03:00:00,
2013-08-27 17:05:00,79.6,70.2,29.98,NE,38,5.0,6.0,73,0.00,,,0.00,Wunderground v.1.15,2013-08-28 03:05:00,
2013-08-27 17:15:00,79.3,69.5,29.98,NE,52,4.0,4.0,72,0.00,,,0.00,Wunderground v.1.15,2013-08-28 03:15:00,
2013-08-27 17:25:00,80.0,70.6,29.98,ENE,68,5.0,5.0,73,0.00,,,0.00,Wunderground v.1.15,2013-08-28 03:25:00,
2013-08-27 17:35:00,79.6,69.8,29.98,NE,51,6.0,6.0,72,0.00,,,0.00,Wunderground v.1.15,2013-08-28 03:35:00,
2013-08-27 17:45:00,79.5,69.7,29.98,NE,38,6.0,9.0,72,0.00,,,0.00,Wunderground v.1.15,2013-08-28 03:45:00,
2013-08-27 17:55:00,79.0,69.2,29.98,NE,49,5.0,6.0,72,0.00,,,0.00,Wunderground v.1.15,2013-08-28 03:55:00,
2013-08-27 18:05:00,79.4,70.4,29.98,ENE,62,4.0,4.0,74,0.00,,,0.00,Wunderground v.1.15,2013-08-28 04:05:00,
2013-08-27 18:10:00,79.5,70.1,29.98,ESE,108,3.0,7.0,73,0.00,,,0.00,Wunderground v.1.15,2013-08-28 04:10:00,
2013-08-27 18:15:00,79.1,69.3,29.98,East,82,4.0,7.0,72,0.00,,,0.00,Wunderground v.1.15,2013-08-28 04:15:00,
2013-08-27 18:25:00,78.6,69.2,29.99,ENE,68,4.0,5.0,73,0.00,,,0.00,Wunderground v.1.15,2013-08-28 04:25:00,
2013-08-27 18:35:00,78.2,69.2,29.99,ENE,59,3.0,3.0,74,0.00,,,0.00,Wunderground v.1.15,2013-08-28 04:35:00,
2013-08-27 18:45:00,77.7,68.7,29.99,NE,49,4.0,4.0,74,0.00,,,0.00,Wunderground v.1.15,2013-08-28 04:45:00,
2013-08-27 18:50:00,77.5,68.6,29.99,East,82,4.0,4.0,74,0.00,,,0.00,Wunderground v.1.15,2013-08-28 04:50:00,
2013-08-27 19:00:00,77.3,68.4,29.99,East,82,4.0,4.0,74,0.00,,,0.00,Wunderground v.1.15,2013-08-28 05:00:00,
2013-08-27 19:05:00,77.4,68.5,29.99,East,81,4.0,5.0,74,0.00,,,0.00,Wunderground v.1.15,2013-08-28 05:05:00,
2013-08-27 19:15:00,77.3,68.8,29.99,East,91,3.0,4.0,75,0.00,,,0.00,Wunderground v.1.15,2013-08-28 05:15:00,
2013-08-27 19:25:00,77.3,69.1,29.99,NE,53,3.0,3.0,76,0.00,,,0.00,Wunderground v.1.15,2013-08-28 05:25:00,
2013-08-27 19:35:00,76.9,70.6,29.99,NE,46,5.0,5.0,81,0.00,,,0.00,Wunderground v.1.15,2013-08-28 05:35:00,
2013-08-27 19:40:00,76.6,70.0,29.99,NE,34,4.0,4.0,80,0.00,,,0.00,Wunderground v.1.15,2013-08-28 05:40:00,
2013-08-27 19:50:00,76.7,70.1,30.00,NE,51,3.0,3.0,80,0.00,,,0.00,Wunderground v.1.15,2013-08-28 05:50:00,
2013-08-27 19:55:00,76.2,69.9,30.00,ENE,69,3.0,6.0,81,0.00,,,0.00,Wunderground v.1.15,2013-08-28 05:55:00,
2013-08-27 20:05:00,75.9,70.4,30.00,ESE,119,4.0,5.0,83,0.00,,,0.00,Wunderground v.1.15,2013-08-28 06:05:00,
2013-08-27 20:15:00,75.7,70.5,30.01,East,92,2.0,3.0,84,0.00,,,0.00,Wunderground v.1.15,2013-08-28 06:15:00,
2013-08-27 20:25:00,76.0,70.5,30.01,East,93,4.0,4.0,83,0.00,,,0.00,Wunderground v.1.15,2013-08-28 06:25:00,
2013-08-27 20:35:00,76.2,70.7,30.01,East,93,3.0,4.0,83,0.00,,,0.00,Wunderground v.1.15,2013-08-28 06:35:00,
2013-08-27 20:45:00,76.1,69.8,30.01,ENE,74,3.0,6.0,81,0.00,,,0.00,Wunderground v.1.15,2013-08-28 06:45:00,
2013-08-27 20:50:00,76.1,69.8,30.01,ESE,105,3.0,3.0,81,0.00,,,0.00,Wunderground v.1.15,2013-08-28 06:50:00,
2013-08-27 20:55:00,76.0,70.1,30.01,East,92,2.0,3.0,82,0.00,,,0.00,Wunderground v.1.15,2013-08-28 06:55:00,
2013-08-27 21:05:00,76.2,70.3,30.01,NE,51,3.0,8.0,82,0.00,,,0.00,Wunderground v.1.15,2013-08-28 07:05:00,
2013-08-27 21:15:00,76.5,70.6,30.01,ENE,65,5.0,5.0,82,0.00,,,0.00,Wunderground v.1.15,2013-08-28 07:15:00,
2013-08-27 21:25:00,76.7,70.8,30.01,NNE,32,5.0,9.0,82,0.00,,,0.00,Wunderground v.1.15,2013-08-28 07:25:00,
2013-08-27 21:30:00,76.8,70.9,30.01,ENE,76,5.0,5.0,82,0.00,,,0.00,Wunderground v.1.15,2013-08-28 07:30:00,
2013-08-27 21:40:00,76.7,70.8,30.01,NE,53,5.0,9.0,82,0.00,,,0.00,Wunderground v.1.15,2013-08-28 07:40:00,
2013-08-27 21:50:00,76.7,70.8,30.02,NE,53,6.0,7.0,82,0.00,,,0.00,Wunderground v.1.15,2013-08-28 07:50:00,
2013-08-27 21:55:00,76.7,70.4,30.02,NE,48,6.0,7.0,81,0.00,,,0.00,Wunderground v.1.15,2013-08-28 07:55:00,
2013-08-27 22:00:00,76.7,70.8,30.02,ENE,65,5.0,5.0,82,0.00,,,0.00,Wunderground v.1.15,2013-08-28 08:00:00,
2013-08-27 22:05:00,76.8,70.9,30.01,NE,48,6.0,7.0,82,0.00,,,0.00,Wunderground v.1.15,2013-08-28 08:05:00,
2013-08-27 22:15:00,76.7,70.8,30.02,NE,44,5.0,5.0,82,0.00,,,0.00,Wunderground v.1.15,2013-08-28 08:15:00,
2013-08-27 22:25:00,76.7,70.4,30.01,NE,49,5.0,9.0,81,0.00,,,0.00,Wunderground v.1.15,2013-08-28 08:25:00,
2013-08-27 22:35:00,76.5,70.2,30.01,NE,55,4.0,5.0,81,0.00,,,0.00,Wunderground v.1.15,2013-08-28 08:35:00,
2013-08-27 22:45:00,75.4,70.2,30.01,East,84,4.0,4.0,84,0.00,,,0.01,Wunderground v.1.15,2013-08-28 08:45:00,
2013-08-27 22:55:00,74.9,70.4,30.01,NE,41,2.0,5.0,86,0.00,,,0.01,Wunderground v.1.15,2013-08-28 08:55:00,
2013-08-27 23:05:00,75.7,70.9,30.01,NE,34,6.0,9.0,85,0.00,,,0.01,Wunderground v.1.15,2013-08-28 09:05:00,
2013-08-27 23:15:00,75.8,70.6,30.01,NNE,18,5.0,6.0,84,0.00,,,0.01,Wunderground v.1.15,2013-08-28 09:15:00,
2013-08-27 23:25:00,76.0,70.5,30.01,NNE,25,5.0,7.0,83,0.00,,,0.01,Wunderground v.1.15,2013-08-28 09:25:00,
2013-08-27 23:30:00,76.0,70.1,30.01,NE,51,5.0,5.0,82,0.00,,,0.01,Wunderground v.1.15,2013-08-28 09:30:00,
2013-08-27 23:35:00,76.1,70.6,30.01,NNE,32,6.0,15.0,83,0.00,,,0.01,Wunderground v.1.15,2013-08-28 09:35:00,
2013-08-27 23:45:00,76.1,70.2,30.00,NE,44,7.0,7.0,82,0.00,,,0.01,Wunderground v.1.15,2013-08-28 09:45:00,
2013-08-27 23:50:00,76.2,70.3,30.00,NE,35,7.0,7.0,82,0.00,,,0.01,Wunderground v.1.15,2013-08-28 09:50:00,